Precipitable_Water
1.08 0.99 1.06 1.06 1.00 0.99 0.99 0.98 0.98 1.00 1.00 1.01 1.01 1.00 0.96 0.95 0.98 1.01 1.00 0.96 0.98 1.08 1.15 1.21 1.25 1.30 1.36 1.39 1.41 1.42 1.43 1.44 1.42 1.40 1.40 1.40 1.40 1.40 1.38 1.33 1.26 1.18 1.12 1.06 0.92 0.83 0.85 0.91 0.97 1.04 1.09 1.10 1.11 1.12 1.09 1.05 0.98 0.95 0.97 0.92 0.86 0.87 0.88 0.89 0.90 0.91 0.93 0.92 0.90 0.90 0.90 0.91 0.90 0.91 0.92 0.89 0.86 0.82 0.81 0.82 0.84 0.86 0.85 0.85 0.87
1.10 1.12 1.09 1.07 1.02 0.98 0.98 0.98 0.98 0.99 1.00 1.01 1.02 0.99 0.95 0.95 0.98 1.00 1.00 0.97 1.03 1.13 1.19 1.24 1.28 1.32 1.35 1.38 1.41 1.43 1.47 1.48 1.46 1.43 1.40 1.40 1.39 1.37 1.32 1.24 1.17 1.13 1.09 1.03 0.93 0.85 0.85 0.92 1.02 1.07 1.10 1.12 1.13 1.08 1.03 0.94 0.86 0.87 0.87 0.87 0.89 0.90 0.91 0.90 0.90 0.90 0.90 0.91 0.91 0.89 0.89 0.90 0.92 0.92 0.89 0.86 0.84 0.84 0.87 0.87 0.86 0.87 0.87 0.87 0.88
1.19 1.16 1.15 1.08 1.02 1.00 0.99 0.97 0.97 0.99 1.01 1.02 1.02 0.98 0.94 0.96 0.98 0.99 0.99 0.98 1.07 1.15 1.19 1.23 1.26 1.29 1.33 1.37 1.42 1.47 1.50 1.51 1.49 1.46 1.43 1.42 1.39 1.35 1.30 1.22 1.15 1.11 1.08 1.02 0.94 0.90 0.91 0.95 0.98 1.01 1.04 1.06 1.04 1.01 0.94 0.86 0.85 0.87 0.89 0.91 0.93 0.94 0.94 0.94 0.93 0.91 0.88 0.88 0.88 0.87 0.88 0.90 0.90 0.91 0.89 0.87 0.88 0.87 0.85 0.86 0.86 0.86 0.88 0.89 0.88
1.17 1.17 1.17 1.10 1.05 1.01 0.98 0.98 0.97 1.00 1.03 1.03 1.01 0.98 0.96 0.97 0.99 0.98 0.98 1.00 1.11 1.15 1.17 1.20 1.24 1.28 1.35 1.39 1.43 1.48 1.51 1.52 1.51 1.50 1.49 1.47 1.43 1.36 1.29 1.22 1.17 1.13 1.08 1.03 0.94 0.92 0.92 0.94 0.98 0.99 1.00 0.98 0.93 0.88 0.83 0.79 0.84 0.92 0.96 0.97 0.97 0.95 0.95 0.96 0.94 0.91 0.89 0.86 0.84 0.81 0.81 0.84 0.86 0.87 0.88 0.89 0.90 0.91 0.92 0.88 0.88 0.89 0.89 0.89 0.89
1.27 1.21 1.17 1.11 1.06 1.02 1.00 0.97 0.97 1.01 1.03 1.02 1.00 0.98 0.98 0.98 0.99 0.99 0.98 1.04 1.11 1.14 1.16 1.18 1.23 1.28 1.35 1.39 1.43 1.48 1.51 1.52 1.54 1.53 1.51 1.48 1.42 1.36 1.33 1.26 1.19 1.15 1.11 1.07 0.98 0.96 0.97 0.96 0.94 0.93 0.93 0.90 0.85 0.78 0.77 0.82 0.88 0.93 0.97 0.98 0.97 0.99 0.99 0.98 0.96 0.96 0.95 0.94 0.89 0.87 0.84 0.82 0.85 0.90 0.92 0.92 0.91 0.95 0.95 0.91 0.91 0.93 0.94 0.94 0.96
1.39 1.31 1.19 1.10 1.05 1.03 1.00 0.98 0.98 1.02 1.03 1.02 1.00 0.99 0.99 0.99 1.00 0.99 0.99 1.06 1.12 1.14 1.16 1.18 1.23 1.29 1.34 1.38 1.41 1.46 1.50 1.52 1.54 1.53 1.51 1.49 1.45 1.39 1.35 1.32 1.25 1.16 1.11 1.07 1.03 0.98 0.97 0.94 0.94 0.92 0.88 0.85 0.80 0.75 0.81 0.88 0.91 0.94 0.96 0.98 0.98 0.99 1.02 1.03 1.03 1.01 1.01 1.00 0.93 0.89 0.90 0.86 0.83 0.88 0.91 0.91 0.92 0.93 0.94 0.96 0.93 0.95 0.94 0.94 0.95
1.48 1.45 1.34 1.12 1.02 1.02 1.00 0.99 0.98 1.01 1.02 1.02 1.01 1.00 1.00 1.00 0.99 0.99 1.00 1.09 1.14 1.15 1.15 1.18 1.23 1.28 1.32 1.36 1.41 1.45 1.49 1.51 1.52 1.52 1.51 1.49 1.45 1.40 1.34 1.31 1.27 1.17 1.10 1.04 1.03 1.00 0.99 0.96 0.93 0.89 0.85 0.81 0.75 0.79 0.87 0.92 0.95 0.96 0.98 0.99 1.00 1.00 1.02 1.02 1.03 1.03 1.02 1.04 0.96 0.93 0.93 0.88 0.87 0.92 0.95 0.93 0.93 0.95 0.95 0.98 0.99 0.95 0.94 0.94 0.95
1.53 1.52 1.45 1.27 1.02 1.00 0.99 1.00 1.00 1.00 1.02 1.03 1.02 1.02 1.02 1.01 0.99 0.98 1.02 1.10 1.14 1.15 1.16 1.20 1.24 1.28 1.32 1.35 1.40 1.43 1.46 1.49 1.50 1.50 1.49 1.47 1.44 1.39 1.32 1.25 1.19 1.17 1.09 1.04 1.04 1.03 1.02 0.97 0.92 0.88 0.84 0.79 0.74 0.83 0.92 0.94 0.97 0.98 0.99 1.00 1.01 1.02 1.02 1.03 1.03 1.04 1.04 1.03 0.96 0.94 0.91 0.88 0.91 0.94 0.97 1.02 1.00 0.99 1.02 1.00 0.98 0.96 0.96 0.92 0.90
1.48 1.48 1.42 1.31 1.06 0.98 0.99 1.00 1.00 1.00 1.02 1.03 1.04 1.04 1.04 1.00 0.97 0.98 1.04 1.11 1.13 1.14 1.17 1.21 1.24 1.28 1.31 1.34 1.37 1.42 1.45 1.47 1.49 1.48 1.46 1.44 1.42 1.38 1.31 1.25 1.21 1.17 1.07 1.03 1.02 0.98 0.94 0.93 0.91 0.87 0.83 0.78 0.79 0.90 0.96 0.98 0.98 0.98 0.99 1.01 1.03 1.04 1.03 1.05 1.09 1.07 1.04 1.02 0.95 0.94 0.95 0.92 0.95 1.01 1.06 1.06 1.03 1.02 1.00 1.00 1.00 0.99 0.97 0.96 0.93
1.47 1.46 1.39 1.27 1.09 0.97 0.98 1.00 1.01 1.01 1.02 1.05 1.05 1.05 1.03 0.99 0.98 0.99 1.05 1.12 1.13 1.13 1.18 1.22 1.25 1.28 1.31 1.34 1.37 1.39 1.41 1.43 1.43 1.41 1.41 1.40 1.37 1.33 1.28 1.21 1.18 1.16 1.06 1.03 1.01 0.96 0.92 0.90 0.89 0.87 0.79 0.77 0.84 0.95 0.96 0.97 0.99 1.01 1.02 1.04 1.07 1.10 1.09 1.10 1.08 1.02 0.99 0.98 0.95 0.99 0.99 0.93 0.93 0.97 1.01 1.02 1.02 1.03 1.03 1.02 1.01 1.00 1.02 1.01 0.97
1.46 1.44 1.35 1.24 1.09 0.97 0.97 1.00 1.02 1.01 1.02 1.04 1.04 1.03 1.01 1.00 0.97 1.00 1.08 1.13 1.13 1.16 1.19 1.23 1.26 1.28 1.30 1.32 1.35 1.36 1.38 1.40 1.39 1.37 1.36 1.34 1.30 1.26 1.22 1.17 1.14 1.11 1.06 1.06 1.02 0.94 0.88 0.88 0.87 0.85 0.79 0.77 0.85 0.93 0.99 0.99 1.02 1.04 1.06 1.07 1.10 1.12 1.12 1.12 1.08 1.02 1.01 0.99 1.00 1.03 0.98 0.91 0.92 0.96 0.97 0.98 0.99 0.99 0.99 0.99 0.99 1.00 1.01 1.04 1.03
1.44 1.44 1.35 1.23 1.10 0.97 0.97 1.01 1.03 1.02 1.02 1.02 1.02 1.01 1.01 1.00 1.00 1.04 1.11 1.14 1.14 1.18 1.21 1.23 1.27 1.29 1.29 1.31 1.34 1.35 1.36 1.36 1.34 1.32 1.30 1.26 1.22 1.17 1.14 1.12 1.08 1.04 1.07 1.05 0.97 0.92 0.89 0.88 0.87 0.84 0.80 0.81 0.89 0.94 0.98 1.01 1.02 1.05 1.06 1.08 1.10 1.10 1.12 1.12 1.09 1.09 1.07 1.04 1.05 1.05 0.97 0.90 0.92 0.94 0.95 0.94 0.96 0.96 0.96 0.97 1.00 1.01 1.00 1.00 1.02
1.41 1.41 1.36 1.25 1.09 1.00 0.99 1.02 1.04 1.02 1.01 1.01 1.00 1.00 1.00 1.03 1.05 1.10 1.14 1.14 1.15 1.20 1.23 1.24 1.27 1.28 1.29 1.31 1.33 1.34 1.33 1.31 1.28 1.24 1.20 1.16 1.12 1.09 1.07 1.06 1.04 1.01 1.04 0.98 0.94 0.93 0.93 0.89 0.87 0.83 0.80 0.83 0.89 0.93 0.96 1.00 1.01 1.04 1.06 1.08 1.07 1.11 1.16 1.19 1.17 1.12 1.09 1.09 1.08 1.08 0.98 0.95 0.96 0.96 0.95 0.95 0.95 0.94 0.95 0.97 0.99 1.01 1.01 1.01 1.03
1.41 1.40 1.36 1.24 1.08 1.01 1.00 1.03 1.04 1.02 1.01 1.00 1.00 1.00 1.03 1.07 1.10 1.13 1.15 1.14 1.18 1.24 1.25 1.24 1.26 1.28 1.28 1.30 1.32 1.31 1.28 1.23 1.19 1.14 1.11 1.06 1.00 0.99 0.99 0.99 0.98 0.97 0.99 0.95 0.93 0.95 0.95 0.92 0.87 0.82 0.78 0.81 0.87 0.91 0.94 0.97 1.01 1.05 1.08 1.08 1.11 1.15 1.18 1.18 1.22 1.16 1.11 1.10 1.12 1.11 1.04 0.99 1.01 0.98 0.95 0.95 0.95 0.95 0.96 0.96 0.98 0.99 1.00 0.98 0.99
1.44 1.40 1.34 1.25 1.11 1.02 1.02 1.04 1.04 1.02 1.00 0.99 0.99 1.03 1.09 1.12 1.13 1.15 1.17 1.19 1.23 1.25 1.25 1.24 1.25 1.27 1.28 1.29 1.29 1.26 1.19 1.14 1.10 1.07 1.04 0.98 0.92 0.89 0.87 0.87 0.90 0.91 0.93 0.93 0.93 0.95 0.94 0.91 0.88 0.84 0.79 0.79 0.84 0.87 0.91 0.95 1.01 1.02 1.04 1.07 1.11 1.14 1.15 1.15 1.15 1.11 1.15 1.19 1.15 1.12 1.05 1.04 1.03 0.96 0.95 0.96 0.96 0.96 0.96 0.96 0.98 0.98 0.99 0.98 0.98
1.44 1.35 1.32 1.24 1.11 1.04 1.03 1.05 1.03 1.01 0.98 0.97 1.01 1.08 1.12 1.13 1.14 1.18 1.22 1.25 1.25 1.26 1.25 1.24 1.25 1.27 1.28 1.27 1.25 1.18 1.13 1.09 1.07 1.04 0.98 0.92 0.86 0.84 0.83 0.84 0.86 0.86 0.89 0.90 0.91 0.95 0.94 0.91 0.87 0.84 0.81 0.79 0.81 0.85 0.89 0.95 0.98 1.00 1.02 1.04 1.06 1.09 1.13 1.12 1.06 1.06 1.14 1.15 1.15 1.15 1.09 1.07 1.02 0.96 0.96 0.96 0.95 0.97 0.97 0.98 0.98 0.99 0.99 0.98 0.98
1.42 1.35 1.30 1.22 1.11 1.02 1.02 1.04 1.01 1.00 0.99 1.01 1.09 1.13 1.15 1.17 1.22 1.26 1.27 1.26 1.26 1.26 1.25 1.25 1.25 1.26 1.26 1.24 1.18 1.11 1.07 1.04 1.01 0.96 0.92 0.86 0.82 0.81 0.82 0.83 0.83 0.84 0.86 0.87 0.89 0.94 0.94 0.91 0.89 0.85 0.81 0.78 0.81 0.83 0.89 0.95 0.96 0.98 0.99 1.00 1.02 1.07 1.10 1.11 1.04 1.05 1.10 1.12 1.13 1.11 1.12 1.09 1.05 1.01 0.97 0.96 0.96 0.97 0.98 1.00 1.00 1.01 0.99 0.97 0.97
1.48 1.42 1.34 1.29 1.13 1.04 1.02 1.02 1.01 1.00 1.02 1.10 1.19 1.21 1.22 1.24 1.26 1.27 1.28 1.27 1.26 1.26 1.26 1.25 1.24 1.24 1.24 1.19 1.10 1.05 1.03 0.98 0.95 0.91 0.86 0.81 0.77 0.77 0.79 0.80 0.81 0.82 0.85 0.85 0.88 0.94 0.95 0.92 0.91 0.89 0.85 0.81 0.78 0.81 0.88 0.92 0.94 0.96 0.98 0.99 1.01 1.06 1.14 1.11 1.05 1.04 1.05 1.08 1.06 1.08 1.12 1.12 1.06 1.00 0.99 0.98 0.98 0.99 1.00 1.00 1.01 1.01 1.00 0.97 0.95
1.51 1.49 1.48 1.40 1.24 1.10 1.03 1.03 1.00 0.99 1.03 1.15 1.22 1.22 1.22 1.24 1.27 1.29 1.29 1.28 1.25 1.25 1.25 1.24 1.23 1.22 1.20 1.13 1.07 1.04 1.02 1.00 0.96 0.88 0.84 0.80 0.76 0.75 0.76 0.79 0.80 0.81 0.84 0.86 0.88 0.92 0.93 0.92 0.90 0.89 0.89 0.84 0.79 0.78 0.84 0.89 0.91 0.94 0.96 0.99 1.00 1.06 1.12 1.09 1.03 1.01 1.01 1.02 1.05 1.09 1.10 1.08 1.02 1.00 1.01 0.99 1.01 1.03 1.01 1.02 1.02 1.02 1.01 0.98 0.95
1.51 1.49 1.48 1.47 1.38 1.20 1.09 1.03 1.00 0.99 1.06 1.18 1.20 1.22 1.24 1.27 1.29 1.30 1.29 1.27 1.25 1.24 1.23 1.22 1.22 1.20 1.15 1.11 1.10 1.12 1.12 1.07 0.97 0.88 0.85 0.82 0.80 0.76 0.77 0.77 0.78 0.79 0.83 0.86 0.87 0.88 0.90 0.91 0.90 0.88 0.88 0.84 0.82 0.80 0.80 0.83 0.84 0.90 0.95 0.96 0.99 1.01 1.02 1.06 1.05 1.04 1.01 1.02 1.06 1.07 1.10 1.09 1.11 1.12 1.10 1.04 1.04 1.05 1.04 1.04 1.05 1.04 1.03 1.00 0.98
1.51 1.50 1.51 1.50 1.45 1.30 1.14 1.04 1.01 1.01 1.11 1.19 1.21 1.24 1.27 1.30 1.32 1.31 1.29 1.27 1.25 1.23 1.22 1.22 1.21 1.17 1.13 1.18 1.21 1.21 1.18 1.13 1.04 0.94 0.87 0.84 0.82 0.78 0.75 0.75 0.76 0.77 0.80 0.84 0.84 0.86 0.88 0.90 0.90 0.89 0.88 0.86 0.84 0.81 0.80 0.79 0.84 0.89 0.90 0.91 0.92 0.93 0.97 1.02 1.07 1.06 1.02 1.07 1.08 1.05 1.08 1.13 1.19 1.21 1.18 1.12 1.08 1.08 1.09 1.09 1.09 1.08 1.06 1.04 1.00
1.47 1.50 1.55 1.55 1.46 1.34 1.19 1.10 1.04 1.05 1.15 1.20 1.24 1.27 1.30 1.32 1.32 1.32 1.31 1.29 1.26 1.22 1.21 1.21 1.18 1.16 1.23 1.29 1.29 1.28 1.25 1.17 1.06 0.99 0.90 0.87 0.87 0.83 0.78 0.73 0.72 0.75 0.78 0.82 0.85 0.87 0.88 0.89 0.91 0.90 0.89 0.88 0.88 0.84 0.80 0.80 0.83 0.85 0.85 0.83 0.83 0.84 0.90 0.90 0.99 1.07 1.08 1.10 1.10 1.09 1.16 1.22 1.25 1.23 1.20 1.15 1.13 1.15 1.15 1.14 1.13 1.12 1.10 1.09 1.07
1.44 1.46 1.46 1.49 1.43 1.31 1.24 1.17 1.11 1.10 1.16 1.21 1.25 1.28 1.31 1.31 1.30 1.31 1.31 1.29 1.27 1.23 1.21 1.19 1.18 1.25 1.33 1.35 1.37 1.37 1.33 1.25 1.16 1.12 1.05 1.02 0.99 0.96 0.90 0.81 0.74 0.72 0.75 0.82 0.86 0.87 0.87 0.88 0.90 0.91 0.91 0.90 0.89 0.89 0.88 0.86 0.85 0.93 0.94 0.93 0.98 0.96 0.93 0.97 1.04 1.09 1.10 1.12 1.12 1.16 1.24 1.27 1.26 1.27 1.29 1.29 1.27 1.23 1.21 1.19 1.19 1.17 1.16 1.12 1.13
1.43 1.41 1.40 1.41 1.35 1.25 1.21 1.19 1.14 1.12 1.15 1.21 1.27 1.30 1.30 1.28 1.27 1.27 1.26 1.24 1.24 1.21 1.20 1.22 1.28 1.35 1.40 1.40 1.41 1.37 1.34 1.28 1.26 1.27 1.19 1.12 1.07 1.08 1.01 0.99 0.97 0.94 0.92 0.86 0.81 0.79 0.80 0.82 0.85 0.87 0.87 0.86 0.97 1.02 1.02 1.02 1.15 1.20 1.20 1.17 1.13 1.14 1.13 1.15 1.18 1.18 1.20 1.20 1.21 1.24 1.28 1.29 1.29 1.32 1.33 1.33 1.32 1.28 1.23 1.21 1.24 1.24 1.24 1.21 1.19
1.35 1.36 1.33 1.26 1.22 1.17 1.16 1.14 1.17 1.16 1.20 1.25 1.26 1.27 1.28 1.27 1.25 1.23 1.22 1.21 1.20 1.19 1.23 1.29 1.33 1.41 1.45 1.46 1.46 1.38 1.27 1.27 1.30 1.31 1.28 1.27 1.23 1.21 1.15 1.09 1.07 1.03 1.04 1.01 0.97 0.92 0.90 0.88 0.89 0.89 0.88 0.86 0.92 0.96 1.00 1.04 1.09 1.12 1.15 1.20 1.20 1.20 1.23 1.28 1.31 1.30 1.29 1.29 1.29 1.31 1.33 1.33 1.33 1.35 1.35 1.35 1.34 1.31 1.27 1.25 1.28 1.30 1.30 1.29 1.27
1.39 1.30 1.32 1.30 1.23 1.20 1.17 1.17 1.19 1.22 1.26 1.28 1.26 1.29 1.29 1.22 1.20 1.20 1.19 1.19 1.18 1.18 1.27 1.35 1.42 1.51 1.51 1.47 1.46 1.39 1.30 1.25 1.26 1.28 1.29 1.32 1.32 1.30 1.31 1.31 1.25 1.18 1.13 1.05 1.03 1.01 0.97 0.93 0.92 0.92 0.90 0.90 0.90 0.95 0.97 0.98 1.00 1.02 1.03 1.07 1.14 1.22 1.23 1.23 1.28 1.32 1.34 1.33 1.33 1.35 1.36 1.35 1.36 1.36 1.35 1.33 1.33 1.32 1.32 1.33 1.34 1.35 1.35 1.34 1.33
1.42 1.40 1.40 1.39 1.40 1.42 1.41 1.37 1.30 1.32 1.36 1.38 1.33 1.30 1.23 1.21 1.20 1.20 1.16 1.16 1.22 1.24 1.32 1.44 1.53 1.56 1.51 1.45 1.42 1.33 1.26 1.20 1.29 1.36 1.36 1.43 1.43 1.42 1.44 1.46 1.40 1.34 1.30 1.21 1.11 1.12 1.12 1.12 1.10 1.05 1.04 1.00 0.99 0.99 1.00 1.05 1.06 1.03 1.01 1.00 1.04 1.12 1.19 1.23 1.27 1.28 1.31 1.34 1.37 1.39 1.38 1.35 1.35 1.36 1.35 1.34 1.34 1.34 1.38 1.40 1.40 1.39 1.39 1.37 1.36
1.51 1.47 1.49 1.53 1.54 1.56 1.59 1.58 1.52 1.46 1.41 1.37 1.28 1.24 1.22 1.23 1.22 1.22 1.22 1.23 1.29 1.34 1.43 1.55 1.59 1.59 1.54 1.44 1.42 1.31 1.22 1.25 1.37 1.41 1.42 1.44 1.41 1.42 1.44 1.44 1.45 1.41 1.39 1.34 1.27 1.26 1.26 1.28 1.26 1.25 1.25 1.25 1.22 1.20 1.16 1.14 1.13 1.12 1.11 1.09 1.06 1.06 1.12 1.20 1.25 1.30 1.29 1.30 1.35 1.39 1.39 1.39 1.40 1.40 1.40 1.39 1.38 1.38 1.41 1.43 1.41 1.41 1.41 1.38 1.37
1.53 1.54 1.53 1.65 1.71 1.73 1.67 1.67 1.57 1.46 1.41 1.37 1.30 1.30 1.29 1.26 1.23 1.22 1.25 1.35 1.37 1.42 1.54 1.58 1.57 1.55 1.49 1.41 1.34 1.27 1.27 1.38 1.42 1.41 1.43 1.40 1.41 1.44 1.47 1.48 1.43 1.39 1.39 1.36 1.33 1.27 1.27 1.28 1.27 1.27 1.28 1.27 1.28 1.28 1.29 1.25 1.23 1.22 1.19 1.16 1.16 1.16 1.15 1.17 1.19 1.25 1.30 1.32 1.33 1.39 1.44 1.42 1.41 1.39 1.40 1.41 1.42 1.43 1.45 1.47 1.47 1.46 1.46 1.43 1.39
1.50 1.52 1.49 1.56 1.70 1.77 1.69 1.58 1.49 1.42 1.40 1.39 1.39 1.38 1.37 1.32 1.31 1.31 1.34 1.39 1.41 1.50 1.55 1.54 1.53 1.50 1.41 1.38 1.36 1.33 1.33 1.40 1.44 1.46 1.43 1.42 1.44 1.44 1.42 1.40 1.36 1.35 1.33 1.29 1.30 1.28 1.25 1.26 1.28 1.28 1.26 1.26 1.25 1.26 1.26 1.24 1.22 1.20 1.19 1.15 1.17 1.19 1.20 1.20 1.20 1.21 1.25 1.30 1.32 1.32 1.37 1.37 1.36 1.35 1.36 1.40 1.45 1.49 1.50 1.51 1.53 1.53 1.51 1.48 1.43
1.55 1.51 1.49 1.55 1.66 1.68 1.62 1.55 1.49 1.46 1.42 1.40 1.43 1.40 1.39 1.35 1.37 1.38 1.37 1.38 1.44 1.49 1.51 1.50 1.43 1.44 1.41 1.40 1.39 1.39 1.41 1.48 1.47 1.44 1.43 1.42 1.41 1.38 1.36 1.37 1.32 1.30 1.31 1.26 1.29 1.26 1.25 1.24 1.23 1.21 1.21 1.20 1.20 1.24 1.23 1.18 1.17 1.18 1.19 1.19 1.20 1.22 1.22 1.24 1.25 1.29 1.29 1.29 1.31 1.32 1.33 1.33 1.34 1.33 1.34 1.38 1.42 1.46 1.50 1.52 1.54 1.56 1.55 1.53 1.48
1.54 1.52 1.52 1.56 1.59 1.63 1.60 1.58 1.56 1.54 1.49 1.45 1.38 1.35 1.35 1.37 1.39 1.39 1.37 1.40 1.44 1.46 1.44 1.37 1.32 1.35 1.39 1.44 1.40 1.41 1.48 1.51 1.48 1.45 1.44 1.41 1.37 1.35 1.33 1.32 1.27 1.32 1.33 1.29 1.24 1.25 1.22 1.20 1.19 1.20 1.20 1.19 1.19 1.21 1.22 1.18 1.15 1.15 1.19 1.20 1.23 1.23 1.23 1.25 1.25 1.25 1.26 1.26 1.27 1.29 1.30 1.31 1.32 1.34 1.34 1.37 1.41 1.46 1.48 1.51 1.52 1.54 1.56 1.57 1.55
1.52 1.54 1.56 1.55 1.52 1.54 1.52 1.53 1.57 1.53 1.49 1.43 1.38 1.35 1.36 1.39 1.35 1.32 1.36 1.41 1.39 1.41 1.34 1.28 1.31 1.37 1.43 1.46 1.44 1.49 1.55 1.51 1.48 1.45 1.43 1.40 1.38 1.33 1.33 1.32 1.34 1.35 1.35 1.30 1.24 1.23 1.18 1.14 1.13 1.15 1.13 1.14 1.13 1.13 1.16 1.15 1.12 1.15 1.18 1.20 1.24 1.23 1.26 1.26 1.25 1.25 1.25 1.26 1.27 1.27 1.26 1.29 1.30 1.33 1.35 1.37 1.39 1.42 1.45 1.48 1.49 1.50 1.51 1.59 1.57
1.44 1.54 1.52 1.45 1.46 1.47 1.51 1.55 1.58 1.51 1.47 1.44 1.41 1.39 1.40 1.39 1.37 1.34 1.37 1.41 1.38 1.35 1.34 1.39 1.44 1.49 1.54 1.55 1.57 1.58 1.54 1.52 1.48 1.45 1.44 1.42 1.36 1.36 1.35 1.36 1.38 1.37 1.33 1.28 1.20 1.18 1.12 1.10 1.09 1.08 1.07 1.07 1.07 1.10 1.10 1.06 1.09 1.13 1.16 1.20 1.21 1.21 1.23 1.22 1.22 1.23 1.26 1.26 1.27 1.27 1.28 1.30 1.32 1.33 1.35 1.37 1.38 1.39 1.41 1.43 1.45 1.45 1.49 1.52 1.54
1.35 1.36 1.36 1.37 1.38 1.42 1.49 1.50 1.52 1.46 1.46 1.45 1.44 1.41 1.41 1.38 1.36 1.38 1.39 1.41 1.43 1.47 1.52 1.54 1.52 1.54 1.60 1.58 1.58 1.56 1.54 1.51 1.49 1.45 1.43 1.43 1.40 1.38 1.38 1.37 1.40 1.37 1.29 1.27 1.21 1.16 1.18 1.15 1.15 1.10 1.11 1.12 1.13 1.13 1.08 1.04 1.03 1.04 1.09 1.13 1.12 1.14 1.16 1.15 1.16 1.17 1.20 1.24 1.24 1.24 1.26 1.27 1.29 1.29 1.31 1.34 1.35 1.37 1.38 1.38 1.39 1.41 1.44 1.48 1.50
1.33 1.32 1.33 1.37 1.37 1.43 1.46 1.43 1.43 1.41 1.43 1.44 1.43 1.43 1.42 1.40 1.40 1.42 1.45 1.51 1.52 1.53 1.57 1.56 1.55 1.60 1.61 1.58 1.58 1.54 1.51 1.50 1.48 1.44 1.41 1.46 1.44 1.39 1.39 1.41 1.42 1.38 1.32 1.29 1.24 1.20 1.21 1.19 1.18 1.14 1.05 1.07 1.10 1.09 1.08 1.03 1.04 1.04 1.09 1.09 1.08 1.08 1.07 1.08 1.10 1.14 1.20 1.23 1.24 1.25 1.26 1.29 1.30 1.27 1.25 1.25 1.26 1.29 1.31 1.31 1.32 1.34 1.38 1.43 1.45
1.38 1.37 1.34 1.36 1.37 1.41 1.41 1.38 1.38 1.40 1.42 1.45 1.48 1.49 1.47 1.44 1.46 1.50 1.52 1.54 1.53 1.55 1.59 1.61 1.60 1.60 1.61 1.56 1.56 1.53 1.49 1.46 1.48 1.46 1.43 1.44 1.45 1.45 1.44 1.43 1.40 1.36 1.31 1.27 1.23 1.23 1.17 1.11 1.10 1.09 1.05 1.02 1.05 1.04 1.04 1.03 1.03 1.05 1.06 1.04 1.04 1.05 1.03 1.04 1.07 1.11 1.17 1.18 1.20 1.21 1.24 1.27 1.28 1.26 1.24 1.23 1.25 1.27 1.28 1.28 1.28 1.29 1.32 1.33 1.34
1.38 1.42 1.40 1.35 1.34 1.36 1.37 1.39 1.41 1.43 1.45 1.49 1.53 1.53 1.51 1.51 1.52 1.55 1.55 1.53 1.56 1.61 1.63 1.63 1.59 1.58 1.58 1.55 1.54 1.50 1.46 1.44 1.46 1.47 1.46 1.48 1.48 1.44 1.43 1.42 1.39 1.34 1.28 1.23 1.16 1.16 1.11 1.06 1.00 1.03 1.04 1.03 1.03 1.02 0.98 1.00 1.02 1.01 1.00 0.98 1.00 1.01 0.98 0.98 1.02 1.07 1.09 1.10 1.13 1.16 1.20 1.22 1.23 1.22 1.23 1.25 1.26 1.27 1.27 1.26 1.26 1.27 1.28 1.29 1.31
1.38 1.41 1.42 1.42 1.41 1.40 1.42 1.43 1.44 1.45 1.47 1.52 1.55 1.56 1.58 1.59 1.61 1.58 1.57 1.57 1.59 1.63 1.63 1.59 1.59 1.59 1.56 1.54 1.52 1.49 1.45 1.44 1.44 1.47 1.42 1.43 1.44 1.43 1.40 1.37 1.36 1.30 1.22 1.12 1.05 1.02 1.01 1.01 0.99 1.01 1.07 1.07 1.04 1.04 1.01 1.00 0.98 0.98 0.95 0.94 0.95 0.94 0.96 0.98 1.01 1.03 1.05 1.09 1.13 1.14 1.13 1.11 1.12 1.16 1.19 1.22 1.24 1.23 1.21 1.22 1.24 1.25 1.25 1.24 1.26
1.40 1.41 1.40 1.41 1.41 1.41 1.44 1.46 1.49 1.51 1.52 1.53 1.54 1.53 1.55 1.54 1.52 1.55 1.53 1.54 1.57 1.56 1.58 1.57 1.57 1.55 1.57 1.55 1.51 1.46 1.48 1.50 1.51 1.52 1.47 1.43 1.43 1.41 1.35 1.33 1.29 1.24 1.11 0.98 0.94 0.94 0.95 0.98 1.01 1.02 1.01 1.03 1.06 1.05 1.04 1.00 0.96 0.92 0.90 0.91 0.93 0.93 0.93 0.98 1.02 1.03 1.08 1.06 1.01 1.03 1.03 1.08 1.10 1.13 1.15 1.17 1.18 1.17 1.17 1.18 1.21 1.22 1.23 1.22 1.23
1.41 1.40 1.40 1.40 1.41 1.43 1.45 1.43 1.51 1.54 1.51 1.49 1.49 1.48 1.45 1.48 1.51 1.48 1.43 1.49 1.50 1.53 1.50 1.52 1.55 1.56 1.54 1.51 1.48 1.48 1.51 1.52 1.54 1.49 1.43 1.40 1.33 1.27 1.26 1.25 1.19 1.07 0.96 0.92 0.94 0.96 1.00 1.03 1.03 1.04 0.99 0.96 0.96 1.01 1.01 1.00 0.86 0.79 0.85 0.83 0.84 0.93 0.97 0.99 0.97 1.01 1.02 1.00 1.01 1.00 1.05 1.08 1.12 1.13 1.18 1.20 1.18 1.19 1.21 1.21 1.21 1.21 1.22 1.22 1.22
1.35 1.39 1.39 1.42 1.44 1.48 1.47 1.48 1.53 1.54 1.53 1.52 1.51 1.51 1.51 1.47 1.44 1.44 1.45 1.47 1.47 1.44 1.43 1.51 1.53 1.54 1.51 1.49 1.48 1.51 1.50 1.47 1.46 1.43 1.38 1.24 1.16 1.15 1.14 1.09 1.04 0.97 0.95 0.97 0.98 1.00 1.01 1.01 1.03 0.97 1.02 0.97 0.93 0.98 0.98 0.92 0.79 0.73 0.66 0.65 0.73 0.84 0.96 0.96 0.96 0.95 0.96 0.97 0.98 0.99 1.02 1.02 1.03 1.10 1.18 1.22 1.23 1.25 1.25 1.23 1.21 1.20 1.20 1.22 1.23
1.36 1.39 1.43 1.43 1.44 1.46 1.49 1.52 1.54 1.53 1.54 1.56 1.56 1.53 1.55 1.55 1.52 1.48 1.46 1.45 1.54 1.54 1.54 1.56 1.56 1.52 1.49 1.49 1.47 1.46 1.43 1.39 1.35 1.29 1.22 1.16 1.14 1.11 1.06 1.02 0.98 0.97 0.95 0.95 0.97 0.97 0.99 0.97 0.97 0.93 0.92 0.98 0.96 0.99 0.96 0.93 0.75 0.79 0.78 0.67 0.60 0.55 0.72 0.80 0.91 0.85 0.94 0.96 0.98 0.97 0.97 0.96 0.96 1.02 1.09 1.08 1.08 1.10 1.13 1.17 1.16 1.13 1.10 1.11 1.14
1.35 1.37 1.40 1.41 1.44 1.46 1.50 1.52 1.53 1.54 1.57 1.61 1.61 1.61 1.58 1.57 1.59 1.55 1.55 1.51 1.46 1.55 1.56 1.57 1.51 1.45 1.41 1.45 1.43 1.41 1.32 1.21 1.18 1.15 1.11 1.09 1.07 1.02 0.99 0.97 0.95 0.98 0.97 0.95 0.96 0.96 0.97 0.95 0.94 0.93 0.93 0.85 0.89 0.90 0.97 0.93 0.85 0.74 0.57 0.58 0.61 0.60 0.47 0.55 0.61 0.67 0.82 0.87 0.93 0.91 0.93 0.90 0.92 0.97 1.00 0.99 1.00 1.02 1.04 1.07 1.05 1.05 1.07 1.11 1.13
1.32 1.34 1.38 1.41 1.43 1.46 1.50 1.52 1.52 1.56 1.61 1.63 1.61 1.60 1.56 1.54 1.54 1.55 1.55 1.51 1.53 1.49 1.46 1.42 1.42 1.40 1.39 1.39 1.35 1.28 1.18 1.15 1.13 1.09 1.09 1.07 1.04 1.01 0.97 0.96 0.96 0.99 0.99 0.96 0.95 0.94 0.94 0.93 0.92 0.89 0.87 0.83 0.80 0.84 0.89 0.91 0.86 0.88 0.74 0.62 0.56 0.52 0.50 0.56 0.58 0.58 0.76 0.78 0.84 0.84 0.83 0.83 0.86 0.91 0.90 0.92 0.95 0.96 0.99 1.01 1.00 1.02 1.07 1.11 1.18
1.31 1.37 1.40 1.42 1.44 1.46 1.49 1.52 1.55 1.58 1.60 1.61 1.60 1.56 1.52 1.46 1.41 1.37 1.34 1.33 1.29 1.31 1.27 1.26 1.29 1.30 1.26 1.25 1.20 1.18 1.16 1.12 1.09 1.08 1.08 1.06 1.01 0.99 0.98 0.98 0.97 0.98 0.97 0.95 0.95 0.93 0.90 0.88 0.88 0.86 0.84 0.86 0.81 0.77 0.76 0.86 0.86 0.84 0.85 0.82 0.73 0.57 0.55 0.62 0.58 0.45 0.66 0.76 0.78 0.80 0.79 0.78 0.79 0.82 0.84 0.83 0.81 0.84 0.92 0.95 0.96 1.00 1.00 1.02 1.06
1.34 1.40 1.40 1.41 1.43 1.44 1.48 1.53 1.55 1.56 1.59 1.60 1.60 1.55 1.51 1.49 1.44 1.39 1.37 1.32 1.27 1.31 1.36 1.37 1.32 1.25 1.20 1.16 1.16 1.15 1.12 1.07 1.06 1.06 1.04 1.02 1.00 0.99 0.99 0.98 0.97 0.96 0.96 0.94 0.90 0.87 0.87 0.86 0.87 0.84 0.83 0.82 0.78 0.68 0.68 0.71 0.78 0.80 0.83 0.83 0.82 0.82 0.81 0.67 0.55 0.58 0.47 0.62 0.73 0.71 0.71 0.74 0.75 0.76 0.74 0.74 0.73 0.74 0.81 0.87 0.89 0.96 0.95 0.94 0.96
1.36 1.37 1.35 1.37 1.38 1.43 1.48 1.52 1.56 1.56 1.58 1.60 1.60 1.58 1.50 1.49 1.45 1.41 1.40 1.35 1.32 1.30 1.34 1.33 1.28 1.19 1.12 1.11 1.10 1.06 1.06 1.05 1.03 1.02 1.01 1.00 0.99 0.99 0.98 0.96 0.94 0.94 0.93 0.90 0.87 0.85 0.84 0.83 0.82 0.81 0.78 0.76 0.73 0.67 0.66 0.70 0.65 0.66 0.75 0.73 0.76 0.81 0.82 0.80 0.77 0.67 0.61 0.51 0.51 0.65 0.69 0.67 0.66 0.68 0.68 0.67 0.66 0.67 0.69 0.76 0.79 0.85 0.88 0.88 0.90
1.33 1.31 1.31 1.34 1.41 1.45 1.49 1.53 1.54 1.55 1.58 1.61 1.59 1.58 1.55 1.50 1.45 1.41 1.35 1.37 1.35 1.33 1.33 1.27 1.17 1.13 1.07 1.05 1.02 1.02 1.03 1.03 1.02 0.99 0.98 0.98 0.98 0.96 0.94 0.92 0.91 0.89 0.89 0.86 0.84 0.82 0.78 0.75 0.74 0.74 0.73 0.72 0.72 0.72 0.68 0.66 0.66 0.64 0.65 0.65 0.67 0.68 0.70 0.71 0.70 0.69 0.59 0.51 0.48 0.48 0.46 0.53 0.56 0.58 0.60 0.62 0.61 0.63 0.64 0.70 0.72 0.74 0.77 0.78 0.82
1.31 1.33 1.34 1.37 1.41 1.45 1.47 1.49 1.50 1.51 1.57 1.60 1.60 1.57 1.55 1.50 1.41 1.36 1.32 1.28 1.28 1.26 1.22 1.11 1.08 1.07 1.01 1.00 1.00 1.00 1.00 0.99 0.98 0.97 0.95 0.96 0.94 0.93 0.91 0.88 0.86 0.86 0.84 0.81 0.79 0.76 0.75 0.74 0.74 0.73 0.72 0.69 0.71 0.69 0.66 0.65 0.66 0.66 0.65 0.63 0.59 0.60 0.60 0.60 0.59 0.58 0.56 0.55 0.43 0.39 0.40 0.36 0.29 0.35 0.46 0.46 0.49 0.54 0.56 0.63 0.64 0.67 0.68 0.69 0.72
1.30 1.30 1.30 1.34 1.41 1.44 1.44 1.44 1.51 1.54 1.57 1.56 1.56 1.53 1.50 1.45 1.37 1.34 1.30 1.24 1.21 1.17 1.09 1.03 1.01 0.99 0.96 0.97 0.98 0.97 0.97 0.94 0.93 0.92 0.92 0.93 0.92 0.91 0.87 0.84 0.82 0.81 0.79 0.77 0.75 0.74 0.73 0.72 0.72 0.71 0.69 0.67 0.65 0.64 0.62 0.62 0.63 0.63 0.63 0.62 0.59 0.57 0.54 0.50 0.49 0.49 0.46 0.41 0.38 0.34 0.34 0.33 0.29 0.25 0.29 0.35 0.35 0.36 0.40 0.45 0.49 0.54 0.58 0.59 0.60
Wind_Speed
6 6 5 5 4 3 3 2 1 1 1 2 2 2 3 4 5 5 6 6 6 6 7 7 7 8 8 9 9 10 10 10 9 9 9 9 8 8 8 8 8 8 8 8 8 9 9 8 8 8 8 8 8 8 9 9 9 9 8 8 9 9 9 9 9 9 9 9 10 9 9 9 9 9 9 8 8 8 8 8 8 8 8 8 8
6 6 6 5 4 4 3 3 2 2 2 2 2 2 3 3 4 5 5 5 5 6 6 6 7 7 8 8 9 9 9 9 9 9 8 8 8 8 8 8 8 9 8 8 8 9 9 9 8 8 7 7 8 8 8 8 9 9 9 9 9 9 9 9 9 9 9 9 9 9 9 9 9 8 8 8 8 8 8 8 8 8 8 8 8
6 6 6 6 5 5 4 3 3 2 2 2 2 1 2 3 3 4 4 5 5 5 5 6 6 7 7 8 8 9 9 9 9 8 8 8 8 8 8 8 9 9 9 8 8 9 9 8 8 7 7 7 8 8 8 8 8 9 9 9 9 9 9 9 9 9 9 9 8 8 8 8 8 8 8 8 8 7 7 7 8 8 8 8 8
7 7 7 6 6 5 5 4 4 3 2 3 2 2 2 2 2 3 4 4 4 5 5 5 5 6 7 7 8 8 8 8 8 8 8 8 8 8 8 8 9 9 9 8 8 8 8 8 8 7 7 7 7 7 7 8 8 8 9 9 9 9 9 8 8 9 9 8 8 8 8 7 7 8 7 7 7 7 7 8 8 8 8 8 8
7 7 7 7 7 6 6 5 4 4 3 3 3 2 2 1 2 2 3 3 4 4 4 4 5 6 6 7 7 7 8 8 8 8 8 8 8 8 8 8 8 8 8 8 8 8 8 8 7 7 7 7 7 7 7 8 8 8 8 8 8 8 8 7 7 7 8 8 7 7 7 7 7 7 7 7 7 7 7 8 8 8 9 9 8
8 8 8 8 8 7 7 6 5 5 4 4 4 3 2 1 1 2 2 2 3 3 4 4 4 5 5 6 6 7 7 7 7 7 8 8 8 8 7 8 8 8 8 8 7 7 7 7 7 7 7 7 7 7 7 8 8 8 8 7 7 7 7 6 6 6 6 6 6 7 7 6 6 6 7 7 7 7 8 8 8 9 9 9 9
9 8 8 9 9 8 8 7 6 5 5 5 4 4 3 2 2 1 2 2 2 3 3 3 4 4 5 5 6 6 6 7 7 7 7 7 7 7 7 7 7 7 7 7 7 7 7 7 7 6 7 6 7 7 7 7 7 7 7 7 7 6 6 5 5 4 5 5 5 6 6 6 6 6 6 7 7 7 8 8 8 9 9 9 9
9 9 9 10 10 9 9 8 7 6 6 6 5 5 4 3 2 2 1 1 1 2 3 3 3 4 4 5 5 5 6 6 6 7 7 7 7 7 7 6 6 7 7 7 7 7 7 7 6 6 6 6 6 7 7 7 7 7 6 6 6 5 5 4 4 4 4 5 5 5 5 6 6 6 6 7 7 7 8 8 9 9 9 10 9
10 10 10 10 10 10 9 9 8 7 7 7 6 6 5 4 3 2 2 1 1 1 2 3 3 3 4 4 4 5 5 6 6 6 6 6 7 7 6 6 6 6 7 7 7 7 7 7 6 6 6 6 6 7 7 7 7 6 6 6 5 5 4 4 4 3 3 4 4 4 5 6 6 6 6 7 7 8 8 9 9 9 10 10 10
10 10 10 10 11 11 10 9 9 8 8 7 7 6 6 5 4 3 2 1 1 0 1 2 2 3 3 3 4 4 4 5 5 5 6 6 6 6 6 6 6 6 7 7 7 7 7 7 6 6 5 5 6 6 6 6 6 6 5 5 5 5 4 4 4 3 3 4 4 4 5 6 6 6 6 7 7 8 8 9 10 10 10 10 10
10 10 10 11 11 11 11 10 10 9 9 8 8 7 6 5 4 3 3 2 1 0 1 1 2 2 3 3 3 3 4 4 4 5 5 5 6 6 5 5 5 6 6 6 6 6 6 6 6 6 6 5 6 6 5 5 5 5 5 5 5 4 4 4 4 4 4 3 3 4 5 5 6 6 6 7 7 8 8 9 10 10 10 10 10
10 10 11 11 12 12 12 11 10 10 9 9 8 8 7 6 5 4 3 3 2 1 0 1 1 2 2 2 2 3 3 3 4 4 5 5 5 5 5 5 5 5 5 6 6 6 6 6 6 6 6 5 5 5 5 5 5 5 5 5 4 5 4 4 4 3 3 3 3 4 5 5 6 6 7 7 8 8 9 9 10 10 10 10 11
11 11 11 12 12 12 12 12 11 10 10 9 9 8 7 6 5 5 4 3 3 2 1 0 1 1 1 2 2 2 3 3 4 4 4 5 5 5 5 4 4 4 5 5 5 5 5 6 6 6 6 5 5 5 5 5 5 5 4 4 4 5 4 4 4 3 2 3 3 4 5 6 6 7 7 8 8 9 9 9 10 10 10 10 11
12 11 11 12 12 13 12 12 11 11 11 10 10 9 8 7 6 5 4 4 3 2 2 1 0 0 1 1 2 2 3 3 4 4 4 4 4 4 4 4 4 4 4 4 5 5 5 5 5 5 5 5 4 4 4 4 4 4 4 4 4 4 4 4 4 3 2 3 3 4 5 6 7 7 7 8 8 9 9 10 10 10 10 11 11
12 12 12 12 13 13 13 12 12 11 11 11 10 9 8 7 6 6 5 4 4 3 2 1 1 0 1 1 2 2 3 3 4 4 4 4 4 4 4 3 3 3 3 4 4 4 5 5 5 5 4 4 3 3 3 3 3 3 3 4 4 4 4 5 4 3 2 3 4 5 5 6 7 7 7 8 8 9 9 10 10 10 11 11 11
12 12 12 12 13 13 13 12 12 12 12 11 10 9 8 7 7 6 5 5 4 3 3 2 1 1 1 1 1 2 3 3 4 4 4 4 4 4 3 3 3 3 3 3 3 4 4 4 4 4 3 3 2 2 2 2 2 2 3 3 4 4 5 5 5 4 3 3 4 5 6 7 7 8 8 8 8 9 9 10 10 11 11 11 11
12 12 12 12 13 13 13 13 12 12 12 11 10 9 9 8 7 7 6 5 5 4 3 2 2 1 1 1 1 2 3 3 3 4 4 4 4 3 3 3 3 2 2 2 3 3 3 3 3 3 3 2 1 1 1 1 1 2 3 3 4 4 5 5 6 5 4 4 5 6 7 8 8 8 8 9 9 9 9 10 10 11 11 11 11
12 12 12 12 13 13 13 13 13 13 12 12 11 10 9 9 8 7 7 6 5 4 3 3 2 2 1 1 2 2 2 3 3 4 4 4 4 4 3 3 2 2 2 2 2 2 2 3 3 2 2 2 1 1 1 1 2 2 3 4 4 5 5 6 6 6 5 5 6 7 8 9 9 9 9 9 10 10 10 10 11 11 11 11 11
12 12 12 13 13 13 13 13 13 13 13 12 11 11 10 9 8 8 7 6 5 4 4 3 3 2 2 1 1 2 2 3 3 4 4 4 4 3 3 3 2 2 1 1 1 1 2 2 2 2 2 2 2 2 2 2 3 3 4 4 5 5 6 6 7 7 6 6 7 8 9 9 10 10 10 10 10 10 10 11 11 11 11 12 12
12 12 12 13 13 13 13 13 13 13 13 12 12 11 10 10 9 8 7 6 6 5 4 4 3 3 2 1 1 1 2 3 3 3 4 4 4 3 3 3 2 2 1 1 1 1 1 2 2 2 2 2 2 2 3 3 4 4 5 5 6 6 7 7 8 8 7 7 8 9 9 10 10 11 11 11 11 11 11 12 12 12 12 12 12
12 12 12 12 13 13 13 13 13 14 13 13 12 11 11 10 9 8 7 7 6 6 5 4 4 3 2 2 1 1 2 3 3 3 3 3 3 3 3 3 2 2 2 2 2 2 2 2 2 3 3 3 3 3 4 4 5 5 6 7 7 8 8 9 9 8 8 8 9 9 10 11 11 12 12 12 12 12 12 12 12 12 13 13 13
12 12 12 12 13 13 13 13 14 14 14 13 12 11 11 10 9 8 8 7 7 6 6 5 4 4 3 2 2 2 2 2 2 3 3 3 3 3 3 3 2 2 2 2 2 3 3 3 3 3 4 4 4 5 5 5 5 6 7 8 9 9 10 10 10 10 9 9 10 10 11 12 12 12 12 12 13 13 13 13 13 13 13 13 13
12 12 12 12 13 13 13 13 14 14 14 13 12 11 11 10 9 9 8 8 7 6 6 5 5 4 3 3 2 2 2 2 2 2 3 3 3 3 3 3 3 2 2 3 3 3 4 4 4 5 5 5 5 6 6 6 7 8 9 9 10 11 11 11 11 11 11 10 11 11 12 12 13 13 13 13 13 13 13 14 14 14 13 13 13
12 12 12 12 13 13 13 13 14 14 14 13 12 12 11 10 10 9 9 8 8 7 6 6 5 5 4 4 3 3 3 2 2 2 2 2 2 3 3 3 3 3 2 3 3 4 4 4 5 5 6 6 6 6 7 7 9 10 10 11 11 11 12 12 12 12 12 11 12 12 13 13 13 13 13 14 14 14 14 14 14 14 14 14 14
12 12 12 12 13 13 13 13 14 14 14 13 13 12 11 11 10 10 9 8 8 7 7 6 6 5 5 5 5 4 3 3 3 3 2 2 2 3 3 3 3 3 3 3 3 4 4 5 5 6 6 7 7 7 8 9 10 11 11 12 12 12 12 12 12 12 13 13 13 13 13 13 14 14 14 14 14 14 14 15 14 14 14 14 14
13 13 13 13 13 13 14 14 14 15 14 14 13 12 12 11 10 10 9 9 8 8 7 7 6 6 6 6 5 5 4 4 3 3 3 3 3 3 4 4 4 4 4 4 4 4 5 5 6 6 7 7 8 8 9 10 10 11 12 12 13 13 13 13 13 13 13 14 13 13 13 14 14 14 15 15 15 15 15 15 15 14 14 14 14
13 13 13 13 14 14 14 15 15 15 15 14 13 12 12 11 11 10 9 9 9 8 8 8 7 7 7 6 6 6 5 4 4 4 4 4 4 4 5 5 4 5 5 4 5 5 6 6 7 7 7 8 8 9 9 10 10 11 11 12 12 13 14 14 14 14 14 14 13 13 14 14 15 15 15 15 15 15 15 15 15 15 15 15 15
12 12 13 13 15 15 14 14 14 14 14 14 13 12 12 11 11 10 9 9 9 9 8 8 8 7 7 7 7 7 6 5 5 4 4 4 4 5 5 5 5 5 5 5 6 6 7 7 8 8 9 9 9 9 10 10 11 11 11 12 12 13 13 14 14 14 13 13 13 14 14 15 16 16 16 16 16 16 16 16 16 16 16 15 15
11 11 12 12 15 14 12 13 13 14 14 13 13 12 11 11 10 10 9 9 9 9 9 9 8 8 7 7 7 7 6 6 6 5 5 5 5 5 5 5 5 5 5 6 6 7 7 8 8 9 9 9 10 10 10 11 11 11 12 12 12 12 13 13 13 13 12 13 13 14 15 16 16 16 16 16 16 16 16 16 16 16 16 16 16
12 12 13 13 13 12 11 12 12 13 13 13 12 11 11 10 10 10 9 9 9 9 9 9 9 8 8 8 7 7 6 6 6 6 5 5 5 5 5 5 5 5 5 6 6 7 7 7 8 8 9 9 9 10 10 10 11 11 12 12 12 12 12 12 12 12 13 13 14 15 16 17 17 17 17 17 17 17 17 17 17 17 17 16 16
13 14 15 14 13 11 11 11 12 13 13 13 12 11 11 10 10 10 9 9 9 9 9 9 9 9 9 8 8 8 7 7 7 7 6 6 6 6 5 5 5 5 6 6 6 7 7 7 8 8 9 9 9 10 10 11 11 11 12 12 12 12 12 12 13 13 14 14 15 16 17 17 17 17 17 17 17 17 18 18 18 18 18 17 17
13 14 16 16 15 14 13 12 12 13 13 12 12 12 11 11 11 10 10 10 10 10 10 9 9 9 9 9 9 8 8 7 7 7 6 6 6 6 5 5 5 6 6 6 7 7 8 8 8 9 9 9 10 10 11 11 11 12 12 12 13 14 14 14 14 15 15 16 16 17 17 17 18 18 18 18 18 18 18 18 18 18 18 18 18
13 14 14 15 15 15 14 13 13 13 12 12 12 12 12 11 10 10 10 10 10 10 10 10 10 10 10 9 9 8 8 8 7 7 7 6 6 6 5 5 5 6 6 7 7 7 8 8 8 9 9 9 10 10 11 11 12 12 12 13 13 14 15 15 16 16 17 17 17 17 17 18 18 18 18 18 18 18 18 18 19 19 19 19 19
14 14 14 14 14 14 14 14 13 13 12 12 12 12 12 11 11 11 10 10 10 10 10 10 10 10 10 9 9 9 8 8 8 7 7 7 6 6 5 5 6 6 6 7 7 8 8 8 8 9 9 10 10 11 11 12 12 12 12 13 14 14 15 16 16 17 17 18 18 18 18 18 18 18 18 18 18 18 18 18 19 19 19 19 19
15 15 15 15 14 15 15 15 14 13 13 12 12 13 13 12 12 12 11 11 11 11 11 11 11 10 10 10 10 9 9 8 8 7 7 7 7 6 5 6 6 6 7 7 7 8 8 8 9 9 10 10 11 11 12 12 13 13 13 14 14 15 15 16 17 17 17 18 18 18 18 18 18 18 18 18 18 18 18 18 18 19 19 19 20
15 15 15 15 15 15 16 15 15 14 14 13 12 13 13 13 13 12 12 12 11 11 11 11 11 10 10 10 10 9 9 9 8 8 8 7 7 6 6 6 7 6 7 7 8 8 8 9 9 10 11 11 12 12 13 13 13 14 14 14 15 15 16 16 16 17 17 17 17 18 18 17 17 18 18 18 18 18 18 18 19 19 19 19 19
14 14 14 15 15 15 15 15 15 14 14 13 12 13 13 13 13 13 13 12 12 11 11 11 11 10 10 9 9 9 9 8 8 8 8 7 7 7 7 7 7 7 7 8 8 8 9 9 10 11 11 12 12 13 13 13 14 14 15 15 16 16 16 16 16 16 17 17 17 17 18 18 18 18 19 18 18 18 18 19 19 19 19 19 20
13 14 14 14 14 14 14 14 14 14 13 13 13 13 12 12 12 13 13 12 12 11 11 10 11 10 10 9 9 9 8 8 8 8 7 7 7 7 7 6 6 7 7 8 8 9 9 10 10 11 11 12 12 12 13 13 14 14 15 15 16 16 16 16 16 16 16 16 17 17 18 18 18 19 19 19 18 19 19 19 19 19 19 19 20
14 14 14 13 14 14 14 14 14 14 13 13 13 13 13 12 12 12 12 12 12 11 10 10 10 10 9 9 9 8 8 8 7 7 6 7 7 7 6 6 6 7 8 8 8 9 9 10 11 11 11 11 11 12 13 14 14 15 15 16 16 16 16 16 16 16 15 16 17 18 18 18 19 19 19 19 19 19 19 19 19 19 19 20 20
14 14 14 14 14 14 14 14 14 13 13 13 13 13 13 13 12 12 12 11 11 11 11 10 9 9 9 8 8 8 8 7 7 6 6 6 6 6 6 6 7 7 8 8 9 9 10 10 11 11 11 11 11 12 13 14 14 15 16 16 16 16 16 15 15 15 16 17 18 18 18 18 19 19 19 19 19 19 19 19 19 19 20 20 20
14 14 15 15 15 15 14 14 14 13 13 13 13 14 13 13 12 12 11 11 11 11 10 10 9 8 8 8 8 8 7 7 6 6 6 5 5 6 6 6 7 7 8 8 9 9 10 10 11 11 11 11 12 12 13 14 14 15 16 16 16 16 15 15 15 16 17 18 18 18 18 18 18 19 19 19 19 19 20 20 20 20 20 21 21
14 14 15 15 15 15 15 14 14 14 13 13 13 14 14 13 12 12 11 11 11 11 10 9 9 8 8 7 8 8 7 6 6 6 6 5 6 6 6 7 7 8 8 8 9 10 10 11 11 11 11 12 12 13 14 14 15 16 16 16 17 16 16 16 16 17 17 18 18 18 18 18 18 19 19 19 19 19 20 20 21 21 21 21 21
14 14 14 15 15 15 15 15 14 14 13 13 13 13 13 13 12 11 11 10 10 10 9 9 8 8 8 8 8 7 7 6 6 5 5 5 5 6 6 7 7 8 8 9 9 10 10 11 11 12 12 12 12 13 14 14 15 16 16 16 17 17 17 17 17 18 18 18 18 18 19 19 19 20 20 19 20 20 20 21 21 22 22 22 22
14 14 14 14 15 15 15 15 14 14 13 13 12 13 13 12 12 11 11 10 9 9 9 8 8 9 8 8 8 7 6 6 5 4 4 5 5 6 7 7 7 8 9 9 9 10 11 11 12 12 13 13 13 13 14 15 16 16 16 16 16 17 17 17 19 21 19 18 19 19 19 20 20 20 20 20 21 21 21 22 22 22 22 22 22
14 14 14 15 15 15 15 15 14 14 13 13 12 13 13 12 11 11 10 9 9 9 9 9 9 9 9 9 8 7 6 5 4 4 5 5 6 6 7 7 8 8 9 9 10 10 11 12 12 13 13 14 14 15 15 15 16 16 16 17 17 17 17 19 20 20 19 20 21 21 21 21 22 21 21 22 22 22 22 22 23 22 22 22 22
14 14 14 14 15 15 15 15 14 14 13 13 13 13 13 13 12 12 11 10 10 10 10 10 10 10 10 9 7 6 5 5 5 5 5 5 6 6 7 8 9 9 9 10 10 11 12 12 13 14 14 15 15 16 16 17 17 17 17 17 17 18 19 20 20 20 21 21 21 22 23 23 24 23 23 24 24 24 24 24 23 22 22 22 21
14 14 14 14 14 14 14 14 14 13 13 13 13 13 13 13 12 12 11 11 11 10 10 11 11 10 10 8 7 5 5 5 5 5 5 6 6 7 8 8 9 10 10 11 11 12 12 13 14 14 15 15 16 16 17 17 17 18 18 18 18 19 20 21 21 22 23 22 22 24 24 25 25 25 25 25 25 25 25 25 24 23 22 22 22
14 14 14 14 14 14 14 13 13 13 13 13 13 13 13 13 12 12 11 11 11 11 11 11 11 10 9 8 7 6 5 5 5 6 6 7 7 8 8 9 10 10 11 11 12 12 13 14 14 15 15 15 16 16 16 17 18 18 19 19 20 20 21 22 22 23 23 24 25 25 25 26 26 26 26 27 26 26 25 25 25 24 24 24 24
14 14 14 14 14 14 14 13 13 13 14 13 13 14 13 13 12 12 11 12 12 12 12 11 10 9 8 7 6 6 6 6 6 7 7 8 8 9 9 10 10 11 11 12 12 13 13 14 14 14 14 15 15 15 16 17 18 19 19 20 21 22 22 23 24 25 25 26 27 27 27 28 27 26 27 27 27 27 26 26 26 25 25 25 25
14 14 13 13 13 14 14 14 13 13 13 13 12 13 13 13 13 12 13 13 13 12 12 10 9 9 7 7 7 7 7 7 7 8 8 9 9 9 10 10 11 11 11 12 13 13 13 14 14 14 14 15 16 16 17 17 18 19 20 20 21 23 24 25 26 26 27 27 28 28 29 28 27 27 27 27 28 27 27 27 27 27 26 26 26
14 13 13 13 13 14 14 13 13 13 13 12 12 13 13 13 13 13 13 14 13 13 11 10 9 8 7 7 7 7 7 8 8 8 9 9 10 10 11 11 11 11 12 12 13 13 13 14 14 14 15 16 16 17 18 18 19 20 20 21 22 23 24 25 26 27 27 28 28 28 29 29 28 27 26 27 27 27 27 27 27 28 28 28 28
Wind_Direction
238 237 229 219 219 217 222 217 198 158 124 100 81 66 63 60 61 57 54 55 58 61 60 58 55 52 50 48 47 47 48 49 50 50 51 51 52 52 50 49 50 51 51 52 55 59 62 66 72 79 84 88 91 92 92 90 88 89 91 90 91 92 93 92 90 87 85 82 78 75 73 72 70 67 64 60 56 53 50 47 42 36 32 29 28
232 234 228 221 219 219 220 215 204 180 148 126 104 80 71 65 64 58 55 56 58 61 60 58 54 52 49 48 48 48 49 51 52 52 53 53 53 52 50 50 51 51 52 55 58 62 65 68 72 78 82 87 90 92 92 90 89 90 91 92 92 93 93 92 89 86 84 82 78 75 72 70 68 64 60 56 52 49 46 41 35 29 27 25 24
227 231 231 222 220 221 219 218 209 194 172 150 132 111 88 74 69 61 58 58 57 58 58 57 54 52 50 49 49 50 50 52 53 54 55 54 53 51 51 51 51 52 53 56 60 63 64 68 71 75 81 87 90 92 92 90 91 92 93 94 94 93 94 92 88 84 80 78 76 74 69 66 64 61 56 52 48 44 40 35 30 25 22 20 18
232 229 229 223 221 221 220 220 214 205 188 168 157 145 117 91 77 67 63 61 58 56 56 56 55 53 50 49 49 51 51 52 54 55 56 55 53 51 51 51 52 52 53 56 60 62 63 66 69 74 80 86 90 92 91 91 93 94 95 95 96 94 94 92 88 83 77 73 71 70 67 62 59 56 51 47 42 38 33 29 26 22 18 15 13
237 231 227 226 225 223 221 220 215 210 195 181 173 164 152 121 91 78 71 65 58 55 55 55 56 53 50 49 50 52 52 52 54 55 55 54 52 50 52 52 52 52 52 53 58 60 61 64 68 73 79 86 90 91 92 94 95 96 96 95 95 94 93 91 88 84 74 68 66 64 63 58 53 51 45 40 35 31 27 24 22 18 15 11 8
239 235 228 226 226 225 222 219 216 210 198 188 182 177 174 160 122 95 84 74 63 56 54 55 55 53 51 51 52 54 53 53 54 55 54 53 50 50 51 52 52 52 50 49 53 56 60 64 67 72 79 86 90 92 96 97 96 96 94 92 91 89 88 87 84 79 67 62 64 60 57 52 47 44 38 34 30 26 22 20 16 12 10 6 2
241 237 229 223 223 225 222 220 217 210 200 194 188 186 186 182 164 127 108 90 70 59 54 53 53 53 53 53 55 56 55 54 55 55 52 50 49 48 50 52 52 49 46 45 48 53 58 63 67 72 79 86 91 96 99 97 95 94 92 89 87 84 80 77 69 62 56 57 61 55 47 42 40 37 32 30 26 23 19 15 11 7 5 2 358
241 237 229 220 219 220 220 219 217 211 204 199 193 192 194 194 186 164 139 111 82 63 54 52 53 54 56 55 57 57 56 56 56 54 49 47 46 46 49 51 50 45 42 44 49 53 57 62 67 73 80 86 92 99 98 95 93 91 90 88 85 80 72 63 53 46 49 56 56 47 39 36 34 29 25 23 20 18 14 10 7 4 2 360 357
240 235 226 218 214 214 217 219 217 212 207 203 198 197 198 199 195 184 167 149 114 68 51 51 54 56 58 58 58 58 57 57 55 50 45 43 42 43 45 47 45 42 42 46 50 52 55 59 66 73 80 86 94 100 98 95 93 91 90 86 80 72 61 49 39 39 53 61 53 40 34 32 27 22 18 15 12 10 8 6 3 1 359 358 356
238 231 223 217 212 212 216 218 218 213 209 206 202 200 201 202 200 193 187 186 182 72 47 49 54 55 57 58 58 57 56 56 51 46 41 37 37 38 39 40 41 42 44 47 49 50 54 58 64 72 79 88 96 100 98 96 93 90 85 78 71 61 50 41 36 46 65 66 47 32 27 23 19 17 13 8 5 4 2 1 0 359 357 357 356
234 228 221 217 211 212 214 217 218 213 210 207 204 203 204 204 203 199 199 204 211 234 31 47 52 53 56 58 56 54 52 49 44 38 34 30 29 31 33 36 38 40 44 47 47 49 53 58 64 71 79 90 98 99 96 93 88 83 77 71 64 56 47 40 40 49 65 61 36 24 21 16 12 10 7 5 0 357 356 357 357 356 356 356 356
232 225 219 216 211 211 214 217 218 214 210 208 206 206 207 207 206 204 206 213 222 237 276 33 46 51 55 55 50 48 42 37 33 28 25 22 22 24 28 32 35 38 42 46 47 49 54 59 64 70 79 89 96 96 92 87 82 77 73 66 59 52 44 39 36 40 53 47 23 16 17 11 7 3 2 1 358 354 353 353 354 354 354 354 354
228 224 219 215 211 211 213 218 218 214 211 209 208 208 210 209 209 209 211 218 224 234 249 307 29 48 48 45 41 37 29 23 20 18 15 14 15 17 21 25 31 36 41 45 47 50 55 60 64 70 79 88 93 92 89 83 79 75 68 59 52 44 36 29 23 25 38 26 6 4 4 2 360 358 357 356 355 353 351 351 350 351 351 351 352
226 222 218 213 211 211 214 218 218 215 211 210 210 210 211 212 212 212 213 220 225 233 249 272 306 26 32 31 28 22 16 14 11 8 6 4 7 9 13 18 24 33 42 45 46 50 56 60 63 70 79 88 91 90 88 82 76 68 58 48 43 36 28 21 15 11 14 0 350 350 350 351 352 350 349 350 351 350 349 348 347 346 346 347 348
226 219 216 213 212 214 216 219 218 215 212 210 210 211 213 213 213 212 214 220 226 234 247 264 259 300 351 11 11 10 7 7 5 1 359 358 1 3 7 12 20 30 42 46 46 51 56 60 62 68 78 88 91 90 87 80 70 56 44 35 31 26 19 15 8 357 348 342 339 337 336 340 342 341 340 342 344 344 344 343 342 342 342 344 344
222 216 215 213 214 216 218 220 218 214 211 210 211 212 214 214 214 213 216 221 229 237 247 260 256 266 300 344 353 356 360 2 0 357 356 358 360 2 5 10 18 26 39 45 45 50 57 61 62 65 72 82 88 85 82 71 53 37 25 18 16 11 6 3 358 346 334 329 329 325 327 331 332 331 330 333 335 337 338 337 338 337 338 338 339
219 215 215 215 216 217 219 220 217 213 211 212 212 214 216 216 215 215 218 224 230 237 246 254 253 257 275 317 339 347 355 358 356 355 355 358 1 2 3 7 15 22 35 43 43 49 56 59 58 59 60 63 63 51 50 30 15 5 360 358 357 355 351 351 349 341 328 322 323 321 323 326 326 325 325 326 328 330 331 331 332 332 332 332 333
219 217 216 216 217 219 220 220 217 214 213 213 215 218 219 218 217 217 220 226 230 236 245 247 247 250 265 303 332 346 353 357 357 355 356 359 1 1 1 5 10 15 25 35 37 42 47 51 48 45 41 35 14 342 322 323 332 333 333 335 334 336 338 340 338 332 323 318 319 320 322 324 325 324 324 324 325 325 325 327 328 329 329 329 329
219 218 218 217 218 221 221 220 218 215 215 216 218 220 220 220 218 218 222 227 231 236 241 241 241 244 259 290 321 343 353 357 358 356 356 359 1 1 359 1 3 5 7 17 24 23 25 29 26 18 10 3 347 321 300 298 307 314 316 319 321 323 327 328 327 323 316 312 314 317 318 321 323 323 322 321 322 322 323 324 325 326 326 326 326
219 219 219 220 220 222 222 221 218 215 216 217 220 220 220 219 218 220 224 228 231 237 239 236 236 240 251 268 300 332 349 357 359 357 357 358 358 360 358 356 354 348 341 338 337 335 338 341 344 341 338 331 324 311 297 294 300 307 309 311 313 315 318 319 321 318 309 307 308 311 314 317 319 319 319 318 318 319 319 321 321 322 322 322 322
220 221 220 221 222 223 222 220 217 215 216 217 219 220 219 218 219 221 224 228 231 236 235 231 234 237 244 251 277 314 341 353 358 357 356 356 356 359 358 353 346 336 324 315 307 306 308 311 314 315 316 313 310 306 300 298 301 305 307 308 308 309 311 313 316 314 307 304 304 306 309 312 315 317 317 316 316 316 316 317 317 318 318 319 319
220 221 221 222 222 222 220 219 216 215 215 217 219 219 219 218 220 222 225 229 231 234 230 229 231 233 238 246 266 291 319 338 352 357 356 354 355 357 359 356 347 332 315 306 301 299 301 303 305 306 306 305 304 303 303 302 304 306 306 307 307 306 307 308 309 308 306 304 303 304 306 309 312 313 314 314 314 314 313 314 314 314 315 316 316
217 217 219 221 221 220 219 218 216 215 216 218 218 217 219 219 221 223 225 228 230 231 228 228 228 232 241 249 263 276 294 313 333 347 351 348 351 353 357 357 352 342 320 306 303 300 301 302 303 303 302 302 300 300 300 300 302 306 306 307 308 307 307 306 306 304 303 304 304 303 304 305 307 309 310 310 311 312 312 312 312 313 312 313 313
217 217 219 222 223 221 220 218 216 216 216 217 217 218 219 220 221 223 225 225 227 227 227 227 228 236 245 251 259 266 273 286 303 320 338 337 339 345 350 350 347 343 331 316 307 303 304 304 305 304 303 301 300 301 301 299 301 304 305 305 307 308 308 307 306 303 300 302 303 302 303 303 304 306 306 307 308 309 311 310 311 311 310 311 310
220 219 220 224 226 225 222 218 217 217 216 217 218 218 218 219 221 222 223 223 225 226 226 227 230 239 246 251 256 261 264 271 286 296 311 314 316 323 325 326 324 321 318 315 310 305 303 304 306 305 304 302 300 303 303 302 302 304 304 303 303 305 306 306 306 304 300 301 301 300 300 301 302 303 304 305 306 307 308 308 308 308 308 308 308
218 217 220 225 226 224 221 217 217 216 216 217 217 217 217 219 221 220 221 222 224 225 227 229 233 242 245 250 255 261 264 265 277 284 289 293 300 306 307 308 308 306 303 305 306 304 303 302 304 303 304 302 300 301 302 302 303 304 305 303 301 301 302 303 304 303 300 300 299 297 298 299 301 302 302 302 304 305 305 306 306 306 305 305 306
215 215 218 220 220 219 217 215 216 217 216 217 217 216 217 219 218 217 219 221 224 227 229 230 235 243 245 249 253 258 261 263 271 277 278 281 289 294 297 300 301 301 299 302 304 304 305 305 305 304 304 304 303 303 302 303 303 306 307 305 303 301 300 301 303 302 299 298 298 297 297 299 300 300 300 300 301 302 302 303 304 304 303 302 303
214 216 220 217 211 208 208 209 213 213 213 215 215 215 215 217 217 217 220 223 227 230 231 232 237 244 246 248 252 256 257 260 268 274 277 279 286 289 292 297 300 301 300 302 306 308 308 307 307 307 307 307 307 307 306 305 306 307 309 308 307 304 301 301 304 303 301 301 300 298 298 300 300 299 299 299 299 299 299 301 302 302 301 300 301
213 214 215 202 192 193 197 202 206 209 211 212 212 212 212 216 218 220 223 226 229 232 234 235 240 244 247 248 249 255 255 257 268 274 280 285 290 292 293 298 301 303 302 303 307 311 310 308 308 308 306 306 306 307 306 305 305 307 309 310 310 310 307 304 305 307 305 305 304 302 301 302 302 300 299 299 298 297 298 298 299 299 299 298 298
216 216 208 193 185 192 201 204 206 209 211 210 210 210 212 216 220 222 224 226 229 232 235 237 241 242 246 248 247 251 251 253 264 271 277 282 286 289 291 293 293 297 301 302 305 309 309 307 307 306 304 304 304 305 306 306 305 307 308 309 311 312 311 309 308 308 308 307 306 305 303 303 302 301 299 298 298 297 297 297 296 297 297 296 295
216 215 211 208 208 212 213 211 208 210 210 211 212 212 214 219 222 222 223 226 228 231 234 237 241 243 247 251 250 249 248 252 263 269 274 278 280 282 285 285 286 295 301 302 305 308 309 308 308 308 307 306 307 308 309 308 307 307 306 306 309 311 311 310 308 307 307 307 307 306 306 305 303 301 300 298 298 298 298 297 296 295 294 293 293
217 213 213 214 216 219 220 218 214 212 212 215 215 216 218 221 223 224 225 228 229 232 235 238 242 247 250 251 250 248 250 256 263 267 270 275 276 276 277 279 286 298 303 305 307 309 309 309 310 311 310 309 309 310 310 309 309 308 306 305 306 308 309 308 307 307 306 307 307 307 307 307 305 303 301 299 299 298 298 298 297 296 294 292 291
219 214 213 214 217 222 222 219 216 213 214 216 216 218 219 220 223 225 227 229 230 235 240 243 246 250 250 248 248 248 252 259 263 265 267 271 273 270 270 276 287 297 303 306 307 308 309 308 310 311 311 311 310 311 311 311 310 309 309 308 307 308 308 308 307 307 307 307 307 307 307 307 305 304 302 300 299 299 299 299 298 297 295 293 292
219 217 215 216 220 222 219 215 213 213 217 218 218 220 220 220 222 225 228 230 233 238 242 246 248 250 249 249 248 248 252 258 261 263 264 267 268 264 263 272 284 292 298 304 306 308 309 309 311 312 312 313 312 312 313 312 311 310 310 311 311 310 310 309 308 307 307 307 308 308 307 307 306 304 303 302 301 300 299 299 299 298 297 295 293
220 222 221 222 223 222 219 215 215 218 221 221 223 224 224 224 226 227 229 232 236 239 242 246 248 250 250 249 247 247 250 254 256 258 260 263 262 257 258 271 282 289 296 304 308 307 307 309 312 313 313 314 314 313 313 313 312 311 311 312 312 312 311 309 308 308 308 308 309 309 310 309 308 307 306 304 303 302 300 299 299 299 298 297 294
220 223 223 224 224 223 221 219 219 223 224 226 228 229 229 229 229 230 232 234 238 241 243 247 249 249 248 246 245 245 248 250 251 254 258 260 256 253 260 272 282 291 298 304 306 304 306 308 310 311 312 312 313 313 312 312 312 311 311 311 311 311 311 310 309 309 308 308 309 310 311 311 311 310 308 307 305 304 302 301 300 300 299 298 296
221 222 223 223 222 221 220 220 219 222 225 227 228 229 230 230 230 232 235 238 240 243 245 248 249 246 242 242 243 243 245 247 248 252 256 254 251 255 265 272 280 290 297 300 302 303 305 306 307 309 310 311 311 311 310 310 310 311 311 311 311 311 311 311 310 309 309 309 309 310 310 310 310 310 310 308 307 306 304 303 302 301 300 299 298
225 226 226 221 218 218 218 218 218 221 225 227 227 229 229 229 232 234 237 239 240 243 246 248 248 242 238 239 240 240 242 245 247 250 250 247 249 258 268 274 281 289 295 298 300 302 304 305 307 310 310 310 311 310 309 309 309 310 310 311 311 311 311 311 311 310 310 310 311 310 309 310 310 310 310 309 308 307 306 305 304 303 302 301 300
227 228 227 222 218 218 218 219 221 223 227 230 230 231 232 233 234 235 237 239 241 243 245 246 243 238 236 236 236 236 239 243 244 242 240 242 249 259 269 278 284 290 295 297 299 301 304 307 310 311 311 310 310 311 309 308 308 309 310 311 312 312 312 312 312 312 311 312 312 310 309 310 310 310 310 309 308 307 307 306 305 304 303 302 301
226 225 224 223 222 221 221 223 225 225 228 231 232 233 234 232 232 233 235 238 241 241 242 242 238 234 233 234 233 232 234 237 235 230 232 240 249 260 269 279 285 289 294 297 299 303 306 309 309 310 310 309 310 311 310 308 308 308 309 311 313 314 313 312 313 312 312 313 312 310 310 311 311 311 310 308 307 306 306 306 306 305 304 303 302
224 223 222 223 223 222 222 224 226 228 230 232 233 233 231 227 228 230 233 236 238 237 237 236 232 229 229 228 225 221 222 225 225 225 232 241 250 262 270 277 285 289 293 297 302 305 308 308 308 310 310 310 312 312 310 309 311 311 310 312 314 314 313 312 313 313 313 314 313 311 312 313 312 312 310 308 307 306 306 305 305 304 304 303 302
223 222 221 222 222 223 223 225 228 231 233 234 233 231 227 224 224 227 229 232 234 234 231 227 224 223 221 217 214 213 215 218 221 226 234 245 255 264 272 279 285 290 294 299 303 306 308 309 310 311 311 312 313 314 313 312 313 313 311 312 314 314 312 310 311 313 314 313 313 314 314 314 314 313 311 309 308 307 306 304 304 303 302 301 300
222 221 221 221 222 223 224 225 228 230 233 234 231 226 223 222 224 225 227 228 229 226 221 218 215 213 211 208 206 208 211 213 217 224 235 250 260 266 275 283 289 293 297 301 305 307 309 311 312 311 311 312 313 315 317 316 315 313 311 312 313 312 311 309 309 311 313 311 312 315 314 313 313 313 312 310 308 307 306 305 304 303 301 300 298
221 220 220 221 221 223 224 225 226 229 231 231 226 220 216 218 223 224 224 223 220 216 213 211 208 206 204 202 200 200 203 207 214 227 243 257 265 271 279 286 292 297 299 301 306 308 309 311 312 312 311 312 313 314 316 316 316 314 311 310 309 310 310 309 309 308 309 309 310 312 313 312 312 312 311 310 308 307 306 306 306 304 302 300 298
220 219 219 222 223 224 225 226 226 227 229 227 222 218 214 216 219 219 220 217 211 208 207 205 203 200 195 193 194 195 200 211 226 242 254 263 271 278 283 288 292 296 299 302 305 307 309 311 312 313 312 312 312 312 313 314 316 315 313 310 309 309 309 309 310 307 307 308 308 310 311 312 311 310 309 308 307 306 305 305 305 304 304 302 300
220 219 220 223 224 225 226 226 226 225 225 223 220 218 216 214 214 213 212 208 204 205 203 197 192 189 187 190 194 200 212 228 242 251 258 267 275 282 287 291 294 298 301 303 305 307 309 310 311 312 312 312 310 311 311 311 312 313 313 312 310 309 308 309 309 307 307 306 306 308 310 310 309 308 307 307 305 304 303 303 303 302 303 303 302
220 220 222 223 223 224 224 224 223 221 219 219 219 217 214 211 210 208 205 202 200 198 194 187 183 184 188 196 204 215 230 239 248 256 265 272 279 285 291 295 298 301 302 302 304 306 307 309 310 310 311 311 310 311 312 310 310 311 312 311 310 310 310 311 310 308 307 306 306 307 308 308 308 306 306 306 304 303 301 301 301 300 300 300 300
218 219 221 222 222 221 221 220 219 217 216 215 216 214 210 207 205 203 201 199 195 189 184 182 185 190 195 203 215 228 237 243 251 263 272 277 282 289 295 299 300 302 302 302 303 305 306 308 309 310 311 312 312 312 313 313 312 312 312 312 311 311 311 313 312 310 308 306 306 306 307 307 306 304 305 305 304 302 300 299 299 297 297 297 297
217 218 219 220 221 219 218 217 215 214 213 213 212 210 208 206 204 200 195 192 189 185 184 187 192 198 204 214 226 234 241 249 258 268 276 282 288 292 297 299 300 301 302 302 304 306 307 309 310 311 312 313 313 313 314 315 315 315 315 314 313 312 312 312 313 312 309 307 307 307 307 308 306 304 304 304 303 301 299 298 297 296 296 296 295
215 216 219 219 218 218 217 213 211 210 209 209 207 205 204 203 198 193 188 187 187 187 189 194 201 209 215 223 231 239 247 254 263 271 279 285 290 293 296 299 300 303 304 304 305 307 309 310 311 311 312 313 312 313 313 314 315 315 315 315 314 313 312 312 313 312 310 308 307 307 308 308 307 305 305 305 303 300 299 298 296 295 295 294 294
214 215 217 216 214 216 214 208 207 206 205 205 202 197 194 193 192 190 189 190 191 193 196 202 209 215 218 225 234 243 250 257 266 275 282 287 290 294 297 300 303 305 306 307 307 308 310 310 310 310 312 312 312 312 313 313 313 314 314 315 314 314 313 312 313 312 310 309 307 306 307 308 306 305 306 306 304 301 300 299 297 296 295 294 293